Theta_e
338 332 343 338 336 335 334 331 327 326 325 325 325 325 330 332 330 330 329 329 327 322 320 318 327 335 325 334 335 331 332 329 328 326 325 316 312 312 313 314 316 329 331
340 332 340 341 339 336 335 333 331 330 329 321 318 320 323 332 331 330 328 326 319 314 312 313 328 336 334 336 336 334 332 330 328 325 316 314 321 314 315 317 325 330 324
345 346 338 341 342 338 336 334 332 330 323 319 320 324 335 333 331 329 328 317 314 312 312 313 326 332 332 332 332 332 331 327 318 313 314 325 325 319 314 316 320 323 317
344 347 344 343 339 338 336 334 332 329 321 332 333 326 330 329 329 328 321 319 316 314 312 312 317 321 326 328 328 329 320 314 312 313 326 323 323 322 312 314 320 328 327
343 346 346 340 339 339 337 335 331 326 319 331 334 330 325 324 325 326 327 325 321 316 316 315 314 314 312 313 314 314 325 319 317 329 330 330 322 328 317 311 315 325 327
342 346 347 344 341 340 338 335 332 325 317 320 330 325 326 326 328 329 328 328 326 319 317 317 317 317 317 317 318 319 320 320 323 331 330 331 331 326 323 321 316 315 319
341 345 342 342 343 341 338 335 332 326 316 320 328 328 328 330 329 331 330 329 328 322 318 319 319 320 321 324 324 325 325 326 327 332 332 332 331 327 325 325 330 329 326
340 344 343 344 342 342 339 335 331 327 317 321 326 329 330 330 331 331 330 329 328 324 319 323 324 326 326 326 327 327 328 328 328 330 330 330 330 328 326 327 329 330 330
340 342 344 342 342 341 338 334 331 329 318 318 327 329 330 330 331 332 331 328 328 319 321 325 327 327 328 328 328 328 326 325 326 331 328 329 329 323 320 327 329 329 330
340 341 342 343 341 341 337 335 332 330 321 317 321 325 329 330 330 330 330 327 324 318 323 326 328 329 329 328 327 325 324 324 325 324 324 325 316 316 318 320 322 323 326
339 340 341 342 342 342 339 336 333 331 333 325 320 317 318 326 328 328 328 324 318 322 325 327 327 328 326 324 324 325 322 322 321 319 318 317 313 313 315 318 317 319 320
339 340 340 341 342 342 342 338 335 333 334 330 328 322 326 329 328 329 322 318 320 326 327 328 330 328 325 322 321 321 318 315 314 315 315 313 311 312 320 319 318 320 319
338 339 340 341 341 342 342 339 339 336 335 335 334 333 328 323 318 320 318 319 326 328 328 328 326 325 326 326 322 314 312 312 311 313 313 311 308 317 319 315 317 316 315
336 339 340 341 342 342 342 340 339 337 336 336 335 334 328 326 326 328 331 331 331 328 326 326 325 325 324 316 311 310 308 307 308 310 311 306 305 307 309 312 311 310 311
333 336 340 340 342 341 343 341 340 338 336 336 336 335 330 328 329 330 330 326 327 327 325 325 325 322 310 310 308 306 305 306 306 308 309 305 305 306 307 308 309 310 311
332 333 337 339 341 342 341 343 341 339 337 337 335 335 331 330 331 331 326 328 326 326 324 324 319 310 308 307 306 304 303 303 304 305 307 304 305 306 307 308 308 308 308
327 329 332 337 339 340 339 341 340 339 338 337 335 335 332 332 332 329 328 327 326 326 323 315 309 308 306 304 303 303 303 302 303 304 303 304 304 305 305 305 303 301 300
327 327 326 329 335 340 330 341 340 339 338 337 335 333 332 331 328 327 328 327 326 324 318 309 308 305 304 303 302 303 302 302 302 302 302 302 302 300 300 300 299 298 298
326 326 326 325 327 333 336 338 339 339 337 336 335 334 333 330 329 328 327 326 325 323 310 309 307 306 305 303 302 302 301 302 302 301 301 301 301 302 301 298 298 298 298
324 325 326 325 325 327 335 338 338 337 336 336 336 334 332 330 329 328 327 326 325 310 310 309 308 308 307 305 303 302 301 302 301 301 301 300 300 299 298 297 296 297 296
322 324 324 325 327 329 332 337 336 336 335 337 335 334 331 330 329 327 326 324 312 310 310 310 310 310 308 306 303 302 302 301 301 302 303 300 298 297 297 296 296 296 296
323 324 324 325 328 331 334 334 334 337 336 334 335 334 331 330 329 326 323 316 310 311 311 311 311 310 309 306 302 301 302 302 301 300 300 298 297 296 296 296 296 296 295
322 323 324 326 329 331 335 332 335 335 332 335 335 333 331 331 327 324 318 309 311 311 311 311 311 309 306 305 301 299 299 301 299 299 298 298 297 297 296 295 295 295 294
321 323 324 327 332 331 334 330 326 326 330 335 335 332 331 329 324 321 310 310 311 311 311 310 310 309 306 303 299 298 297 296 296 297 298 297 297 296 295 295 294 295 294
319 322 324 329 331 332 331 327 327 328 333 333 332 331 330 325 319 314 309 311 311 310 310 310 309 308 306 302 299 296 295 295 295 295 295 296 295 295 295 294 293 293 292
315 321 323 330 328 332 329 327 327 330 332 332 332 330 326 320 317 309 309 310 310 310 309 309 308 307 304 301 298 296 295 294 294 294 294 294 293 294 293 293 293 292 291
Wind_Speed
12 13 14 12 12 10 9 8 7 5 4 6 8 9 7 3 2 3 4 5 6 6 5 4 1 1 9 6 5 5 6 8 9 9 11 13 11 8 6 5 4 4 11
16 15 15 14 12 9 7 6 4 2 1 1 5 7 6 5 1 2 4 5 6 4 3 3 7 6 8 7 5 1 4 7 8 9 10 9 10 8 6 4 1 3 8
17 17 16 15 14 9 7 5 3 2 2 6 9 12 11 7 3 1 3 5 6 6 5 3 7 3 3 3 5 5 7 9 9 8 7 8 7 9 6 3 4 3 4
17 17 16 17 13 10 8 6 3 2 3 8 9 11 7 4 4 2 8 7 9 9 8 6 3 5 6 7 7 7 7 8 6 6 9 4 3 12 8 6 2 4 5
16 15 17 16 13 10 7 6 3 3 4 10 9 6 9 13 13 8 6 8 8 8 8 7 6 4 2 1 2 1 4 3 5 10 6 7 7 10 9 8 5 4 4
16 15 17 14 13 10 7 5 2 2 4 10 9 9 14 10 7 4 3 5 6 6 6 6 6 5 5 4 4 4 6 7 5 5 6 8 9 9 9 8 7 7 7
16 14 14 16 13 10 8 5 3 3 4 8 13 13 10 7 5 4 2 1 3 3 4 4 4 5 4 5 5 6 7 7 9 5 7 6 9 12 10 10 11 10 9
16 15 14 16 12 10 8 6 4 3 5 9 13 13 10 7 5 2 4 2 0 2 2 3 4 4 4 5 6 7 9 9 7 8 9 9 12 13 12 9 9 10 12
15 15 13 16 14 11 9 7 5 4 6 10 12 11 8 8 5 4 6 4 2 1 1 2 3 2 4 6 7 9 11 10 8 7 7 6 11 12 10 9 11 12 14
14 14 14 15 15 14 12 10 6 5 7 8 10 9 8 7 6 4 4 4 3 2 1 1 3 5 7 8 9 9 10 9 8 8 6 11 11 11 10 10 11 13 15
13 14 15 16 16 15 13 11 10 8 9 9 8 8 8 6 7 5 6 4 4 3 2 3 5 6 8 8 8 10 9 5 6 6 6 11 12 12 11 11 12 13 14
13 16 16 18 16 16 16 14 12 9 11 8 6 6 6 8 8 10 7 6 5 4 4 5 6 7 6 4 8 10 6 9 7 7 12 13 12 10 8 12 11 12 14
14 15 17 18 18 19 20 16 14 11 11 9 10 8 8 10 11 9 6 4 4 4 3 6 7 7 10 11 12 9 14 13 9 7 16 14 10 5 9 12 12 14 13
16 17 17 18 18 18 17 20 16 16 12 13 13 11 9 8 9 8 6 9 8 4 5 6 7 10 11 12 14 13 14 13 8 6 16 11 8 10 13 11 12 12 11
17 17 17 18 18 19 18 17 18 16 15 15 14 13 10 10 9 8 9 9 6 5 6 8 9 9 11 14 15 14 11 9 7 5 14 9 8 10 11 11 11 11 11
16 17 17 18 19 17 19 18 16 15 15 17 19 15 14 12 11 15 11 8 7 8 9 9 9 11 12 14 14 12 10 8 6 5 5 10 8 10 11 11 13 13 14
17 18 18 19 19 21 20 21 19 16 17 20 20 15 15 15 19 16 12 9 8 10 9 8 10 11 12 13 10 11 10 8 7 5 5 7 10 10 12 12 14 14 14
21 19 19 20 20 20 20 21 20 20 18 23 19 19 18 18 14 12 12 11 10 9 7 7 8 10 10 11 10 8 10 10 7 6 8 6 9 9 13 13 15 17 18
27 23 21 22 22 22 21 20 21 24 24 22 19 19 22 15 14 12 13 11 11 8 6 6 7 7 9 10 10 10 11 8 8 7 6 9 12 13 16 19 16 20 20
31 26 23 23 24 21 22 20 24 25 25 27 29 24 17 16 16 14 13 13 11 7 4 3 5 7 8 10 10 9 9 5 7 7 7 8 13 15 16 19 19 19 23
34 33 28 27 24 23 25 29 29 32 32 34 29 23 20 19 18 16 14 13 11 7 3 2 5 7 9 10 9 7 8 8 7 7 9 8 11 16 17 14 19 21 22
30 31 29 28 26 26 27 29 31 36 38 31 27 24 22 21 20 17 14 14 11 7 3 2 5 9 11 12 10 7 3 4 5 5 7 15 10 15 13 18 23 22 21
33 32 31 29 28 28 27 27 36 41 35 34 31 28 25 25 23 20 17 14 11 7 4 2 5 7 10 12 10 4 3 3 13 8 8 10 13 13 19 24 24 22 24
36 32 30 29 28 28 30 34 37 38 40 39 35 31 28 28 25 20 18 15 12 8 4 3 6 8 9 10 10 9 4 8 3 9 4 12 16 19 21 24 26 26 26
33 34 32 27 30 28 34 35 36 33 39 37 35 32 33 31 25 22 20 16 12 7 5 4 6 9 10 9 10 9 7 8 8 11 20 14 21 20 23 22 21 26 22
33 30 34 30 31 31 34 33 32 34 40 40 34 34 34 30 27 24 20 16 12 7 5 6 7 10 11 12 11 11 9 7 9 11 18 23 25 26 21 24 25 24 23
Wind_Direction
155 167 164 154 145 138 137 134 132 128 154 190 217 227 224 236 270 345 330 320 315 307 300 272 178 29 117 132 164 204 243 283 294 300 306 315 322 337 326 283 270 2 275
154 164 167 157 153 148 139 136 126 99 50 194 187 171 162 169 198 26 354 345 334 349 351 214 183 109 117 134 152 168 289 304 305 310 318 336 345 354 357 1 7 214 266
150 161 163 157 169 166 157 154 137 72 50 110 123 145 156 166 161 77 305 36 40 37 47 128 190 220 165 226 261 279 296 302 309 321 5 34 325 332 335 339 323 3 13
150 163 164 168 175 172 166 159 140 68 84 121 120 141 148 182 181 212 92 70 55 52 59 79 160 229 238 254 262 281 300 311 337 17 31 335 352 315 323 312 319 350 316
154 163 183 171 173 177 173 171 141 98 117 146 156 137 135 127 123 118 80 63 50 48 54 62 70 70 63 340 305 317 9 342 27 38 346 329 355 308 328 327 318 304 276
157 158 196 185 181 180 181 180 153 95 122 164 156 133 152 137 131 127 92 56 50 46 48 49 53 55 55 46 28 9 356 18 34 356 342 332 360 319 335 332 334 320 305
161 168 197 178 191 187 184 186 169 126 135 147 169 146 151 161 166 182 194 86 33 39 46 44 42 42 41 34 26 15 10 10 28 11 341 325 301 321 330 335 336 328 329
167 166 176 178 195 202 206 192 175 148 145 154 162 162 167 165 168 193 180 198 321 0 19 39 61 55 45 24 9 355 344 341 349 342 320 323 302 313 318 330 316 305 304
170 168 178 183 188 205 220 201 183 158 149 164 170 173 168 172 173 129 166 198 251 282 345 60 63 26 358 345 342 339 333 332 359 305 320 313 295 309 318 304 298 299 296
173 173 178 183 194 201 209 208 192 176 162 157 179 187 184 189 192 169 197 219 248 263 275 347 346 344 335 330 331 340 345 357 1 336 338 285 312 317 317 309 303 296 292
183 184 183 187 189 190 204 208 200 189 184 176 177 186 194 187 213 200 209 234 243 264 290 310 318 328 333 336 335 336 344 332 335 314 302 296 312 314 314 304 300 303 303
198 196 194 189 191 195 196 211 210 203 203 200 200 199 171 194 196 189 221 233 250 263 285 304 311 318 342 320 321 338 324 316 325 317 287 297 302 309 298 289 299 292 296
209 204 199 197 194 196 193 215 193 189 214 198 202 203 197 197 210 211 222 236 264 259 328 328 323 306 308 306 308 314 312 315 313 303 283 298 299 285 264 288 284 287 295
210 209 205 202 199 201 203 208 200 189 208 205 206 203 197 183 186 187 175 196 208 251 276 274 291 305 310 314 313 312 310 315 303 285 285 299 287 270 275 283 288 293 298
217 210 206 202 204 200 206 208 209 201 196 214 208 205 194 191 187 177 196 196 221 238 259 282 289 302 309 312 311 312 312 306 302 281 281 290 281 278 282 285 295 298 298
219 215 209 207 206 209 202 207 209 209 209 208 214 197 192 191 190 194 197 216 225 255 269 281 294 307 312 316 316 314 315 306 298 267 244 291 277 277 284 288 291 294 295
227 220 216 215 210 211 207 213 208 205 211 212 212 195 191 193 205 217 218 224 242 262 276 289 309 316 320 324 322 316 315 299 287 270 256 261 290 275 281 287 293 296 299
232 225 222 217 213 218 227 210 210 210 209 216 207 199 197 201 222 223 220 230 242 264 271 301 317 326 334 331 327 310 311 303 273 252 264 260 266 281 296 292 297 297 298
233 230 224 215 213 212 230 208 214 213 205 216 202 199 208 215 217 225 226 231 245 254 274 307 331 340 340 334 330 318 303 289 268 252 250 273 279 283 293 297 305 302 301
233 231 227 220 222 214 212 207 214 210 209 204 197 214 213 214 217 216 219 224 236 233 264 313 337 347 347 343 335 320 313 287 258 250 259 283 290 296 295 297 305 310 313
232 231 226 220 216 205 202 201 209 209 208 207 211 209 214 214 211 210 215 217 212 221 236 304 341 347 350 352 353 330 315 315 283 271 281 280 279 300 306 301 308 310 308
230 229 225 221 213 207 201 213 208 200 207 220 207 204 210 210 207 206 209 205 207 209 218 306 347 347 350 358 2 9 326 273 326 303 267 276 299 286 294 297 303 305 302
231 228 227 219 208 207 202 206 202 211 217 198 205 204 203 207 201 204 199 207 206 208 219 300 345 354 348 348 360 22 339 307 297 301 299 283 289 288 293 303 307 305 305
232 226 225 216 206 203 196 215 222 219 204 199 203 199 201 198 198 201 198 207 208 209 227 300 337 345 350 340 346 339 303 270 304 305 267 295 291 287 304 300 300 302 305
234 225 217 211 209 199 209 220 217 211 201 197 196 196 197 194 194 196 199 207 208 213 243 301 328 339 339 334 330 324 308 305 287 273 295 296 289 292 289 297 294 298 298
234 225 212 206 211 201 209 213 208 201 204 202 195 195 195 191 193 195 199 207 212 224 256 297 321 331 330 327 322 317 306 296 278 284 288 292 296 302 298 289 292 302 294